Date String (YYYY-MM-DD hh:mm:ss) UTC,Instrument flags,Ambient pressure (hPa),Sample flow (lpm),Bypass flow (lpm),Sample temperature (°C),Ambient temperature (°C),ASC tube jacket temperature (°C),LED temperature (°C),Box temperature (°C),Sample RH (%),Span deviation,Mass concentration (μg/m³),Mass concentration (μg/m³),Mass concentration (μg/m³)
DateTimeUTC,F1_M11,P_M11,Q1_M11,Q2_M11,T1_M11,T2_M11,T3_M11,T4_M11,T5_M11,U1_M11,ZSPAN_M11,X2_M11,X0_M11,X1_M11
2022-12-27 17:00:00,,0815.0,5.00,0.00,23.5,22.4,00.0,32.3,25.2,10.2,0000.0,0000.21,0000.33,0000.15
2022-12-27 17:01:00,,0815.1,4.98,0.00,23.5,22.4,00.0,32.3,25.2,10.7,0000.0,0000.21,0000.32,0000.15
2022-12-27 17:02:00,,0814.8,4.98,0.00,23.5,22.4,00.0,32.3,25.3,11.2,0000.0,0000.19,0000.29,0000.15
2022-12-27 17:03:00,,0814.8,5.00,0.00,23.6,22.4,00.0,32.3,25.3,11.3,0000.0,0000.21,0000.31,0000.14
2022-12-27 17:04:00,,0814.9,5.01,0.00,23.6,22.5,00.0,32.3,25.4,11.0,0000.0,0000.20,0000.30,0000.14
2022-12-27 17:05:00,,0814.9,5.01,0.00,23.6,22.5,00.0,32.3,25.5,12.1,0000.0,0000.22,0000.36,0000.14
2022-12-27 17:06:00,,0814.9,4.99,0.00,23.6,22.5,00.0,32.3,25.5,12.6,0000.0,0000.23,0000.42,0000.14
2022-12-27 17:07:00,,0814.7,5.02,0.00,23.6,22.5,00.0,32.4,25.5,12.4,0000.0,0000.22,0000.49,0000.14
2022-12-27 17:08:00,,0815.1,4.99,0.00,23.6,22.5,00.0,32.4,25.5,12.5,0000.0,0000.24,0000.54,0000.15
2022-12-27 17:09:00,,0814.9,4.98,0.00,23.6,22.5,00.0,32.4,25.4,12.4,0000.0,0000.24,0000.57,0000.14
2022-12-27 17:10:00,,0814.9,5.00,0.00,23.6,22.6,00.0,32.4,25.4,12.2,0000.0,0000.26,0000.61,0000.15
2022-12-27 17:11:00,,0814.9,5.03,0.00,23.6,22.6,00.0,32.4,25.4,12.6,0000.0,0000.27,0000.63,0000.14
2022-12-27 17:12:00,,0814.9,4.98,0.00,23.7,22.6,00.0,32.4,25.4,12.1,0000.0,0000.28,0000.66,0000.14
2022-12-27 17:13:00,,0814.7,5.01,0.00,23.7,22.6,00.0,32.4,25.4,12.1,0000.0,0000.29,0000.70,0000.14
2022-12-27 17:14:00,,0814.7,5.00,0.00,23.7,22.6,00.0,32.4,25.4,12.6,0000.0,0000.30,0000.73,0000.15
2022-12-27 17:15:00,,0815.1,4.97,0.00,23.7,22.6,00.0,32.5,25.5,12.7,0000.0,0000.32,0000.80,0000.15
2022-12-27 17:16:00,,0814.8,4.98,0.00,23.7,22.7,00.0,32.5,25.5,12.1,0000.0,0000.31,0000.77,0000.14
2022-12-27 17:17:00,,0814.9,5.03,0.00,23.7,22.7,00.0,32.5,25.5,12.2,0000.0,0000.30,0000.71,0000.14
2022-12-27 17:18:00,,0815.1,5.03,0.00,23.8,22.7,00.0,32.5,25.5,12.1,0000.0,0000.29,0000.63,0000.14
2022-12-27 17:19:00,,0814.8,5.00,0.00,23.8,22.7,00.0,32.5,25.5,11.5,0000.0,0000.29,0000.59,0000.14
2022-12-27 17:20:00,,0814.9,4.99,0.00,23.8,22.8,00.0,32.5,25.5,11.6,0000.0,0000.30,0000.58,0000.14
2022-12-27 17:21:00,,0814.5,4.96,0.00,23.8,22.8,00.0,32.5,25.5,11.3,0000.0,0000.29,0000.54,0000.14
2022-12-27 17:22:00,,0814.4,4.96,0.00,23.8,22.8,00.0,32.6,25.5,11.0,0000.0,0000.27,0000.51,0000.14
2022-12-27 17:23:00,,0814.3,4.97,0.00,23.8,22.8,00.0,32.6,25.5,11.1,0000.0,0000.26,0000.59,0000.14
2022-12-27 17:24:00,,0814.3,5.01,0.00,23.9,22.8,00.0,32.6,25.6,11.4,0000.0,0000.24,0000.56,0000.14
2022-12-27 17:25:00,,0814.4,5.04,0.00,23.9,22.8,00.0,32.6,25.6,11.2,0000.0,0000.23,0000.54,0000.13
2022-12-27 17:26:00,,0814.4,5.01,0.00,23.9,22.8,00.0,32.6,25.6,11.4,0000.0,0000.21,0000.47,0000.13
2022-12-27 17:27:00,,0814.4,4.98,0.00,23.9,22.8,00.0,32.6,25.6,11.5,0000.0,0000.20,0000.45,0000.13
2022-12-27 17:28:00,,0814.4,4.97,0.00,23.9,22.8,00.0,32.6,25.6,11.4,0000.0,0000.21,0000.46,0000.13
2022-12-27 17:29:00,,0814.4,4.97,0.00,23.9,22.7,00.0,32.7,25.6,10.7,0000.0,0000.22,0000.49,0000.13
2022-12-27 17:30:00,,0814.4,5.03,0.00,23.9,22.7,00.0,32.7,25.6,11.3,0000.0,0000.22,0000.49,0000.12
2022-12-27 17:31:00,,0814.2,5.07,0.00,23.9,22.7,00.0,32.7,25.6,10.4,0000.0,0000.20,0000.46,0000.12
2022-12-27 17:32:00,,0814.3,5.01,0.00,23.9,22.7,00.0,32.7,25.5,10.7,0000.0,0000.19,0000.46,0000.12
2022-12-27 17:33:00,,0814.5,4.97,0.00,23.9,22.7,00.0,32.7,25.6,10.8,0000.0,0000.19,0000.46,0000.12
2022-12-27 17:34:00,,0814.3,4.99,0.00,23.9,22.7,00.0,32.7,25.6,11.0,0000.0,0000.18,0000.31,0000.12
2022-12-27 17:35:00,,0814.4,5.04,0.00,23.9,22.7,00.0,32.7,25.6,11.4,0000.0,0000.20,0000.33,0000.12
2022-12-27 17:36:00,,0814.1,5.01,0.00,23.9,22.7,00.0,32.7,25.6,11.2,0000.0,0000.22,0000.36,0000.13
2022-12-27 17:37:00,,0814.1,4.98,0.00,23.9,22.7,00.0,32.7,25.6,10.9,0000.0,0000.23,0000.40,0000.13
2022-12-27 17:38:00,,0814.2,4.97,0.00,24.0,22.7,00.0,32.7,25.7,10.4,0000.0,0000.23,0000.37,0000.14
2022-12-27 17:39:00,,0814.1,5.00,0.00,24.0,22.7,00.0,32.8,25.7,11.3,0000.0,0000.23,0000.36,0000.14
2022-12-27 17:40:00,,0814.2,5.07,0.00,24.0,22.7,00.0,32.8,25.7,11.0,0000.0,0000.22,0000.37,0000.14
2022-12-27 17:41:00,,0814.2,5.01,0.00,24.0,22.7,00.0,32.8,25.7,10.8,0000.0,0000.21,0000.43,0000.14
2022-12-27 17:42:00,,0814.2,4.99,0.00,24.0,22.7,00.0,32.8,25.7,11.0,0000.0,0000.22,0000.46,0000.14
2022-12-27 17:43:00,,0814.2,4.98,0.00,24.0,22.7,00.0,32.8,25.6,10.4,0000.0,0000.24,0000.49,0000.14
2022-12-27 17:44:00,,0814.1,4.97,0.00,24.0,22.7,00.0,32.8,25.6,10.4,0000.0,0000.24,0000.49,0000.14
2022-12-27 17:45:00,,0814.3,4.99,0.00,24.0,22.7,00.0,32.8,25.6,09.9,0000.0,0000.24,0000.49,0000.14
2022-12-27 17:46:00,,0814.2,4.99,0.00,24.0,22.7,00.0,32.8,25.7,10.0,0000.0,0000.22,0001.13,0000.13
2022-12-27 17:47:00,,0814.1,5.03,0.00,24.0,22.8,00.0,32.8,25.7,10.2,0000.0,0000.20,0002.07,0000.13
2022-12-27 17:48:00,,0814.2,5.02,0.00,24.0,22.8,00.0,32.8,25.7,10.1,0000.0,0000.17,0002.02,0000.12
2022-12-27 17:49:00,,0814.7,4.97,0.00,24.0,22.8,00.0,32.8,25.7,10.1,0000.0,0000.18,0002.02,0000.12
2022-12-27 17:50:00,,0814.1,4.97,0.00,24.0,22.8,00.0,32.8,25.7,10.0,0000.0,0000.19,0002.06,0000.12
2022-12-27 17:51:00,,0814.0,4.99,0.00,24.0,22.8,00.0,32.8,25.7,09.8,0000.0,0000.19,0002.02,0000.12
2022-12-27 17:52:00,,0814.0,5.01,0.00,24.0,22.8,00.0,32.8,25.7,09.1,0000.0,0000.18,0001.97,0000.12
2022-12-27 17:53:00,,0814.2,5.04,0.00,24.0,22.9,00.0,32.8,25.7,09.4,0000.0,0000.18,0001.97,0000.12
2022-12-27 17:54:00,,0814.2,4.97,0.00,24.0,22.8,00.0,32.9,25.7,10.2,0000.0,0000.18,0001.99,0000.12
2022-12-27 17:55:00,,0814.1,5.00,0.00,24.1,22.8,00.0,32.9,25.7,10.7,0000.0,0000.18,0001.99,0000.12
2022-12-27 17:56:00,,0814.3,4.98,0.00,24.1,22.9,00.0,32.9,25.9,12.4,0000.0,0000.22,0002.15,0000.13
2022-12-27 17:57:00,,0814.3,4.99,0.00,24.1,22.9,00.0,32.9,25.9,12.5,0000.0,0000.28,0001.51,0000.17
2022-12-27 17:58:00,,0814.1,4.98,0.00,24.1,22.9,00.0,32.9,25.9,10.8,0000.0,0000.28,0000.60,0000.18
2022-12-27 17:59:00,,0814.0,4.99,0.00,24.1,22.9,00.0,32.9,25.9,10.7,0000.0,0000.29,0000.61,0000.18
